START_TIME,STEP,MOV.,M29,t_acc.,H22,t_acc.,H26,t_acc.,H30,t_acc.
1979-07-16 18:00:31.950 ,1,1,0.,24.0,0.,24.0,0.,24.0,0.,24.0
1979-07-16 18:00:55.950 ,2,1,0.,24.0,0.,24.0,0.,24.0,0.,24.0
1979-07-16 18:01:19.950 ,6,1,0.,24.0,0.,24.0,0.,24.0,0.,24.0
1979-07-16 18:01:43.950 ,5,1,0.,24.0,0.,24.0,0.,24.0,0.,24.0
1979-07-16 18:02:07.950 ,1,1,0.,24.0,0.,24.0,0.,24.0,0.,24.0
1979-07-16 18:02:31.950 ,2,1,0.,24.0,0.,24.0,0.,24.0,0.,24.0
1979-07-16 18:02:55.950 ,6,1,0.,24.0,0.,24.0,0.,24.0,0.,24.0
1979-07-16 18:04:55.950 ,0,0,0.,24.0,0.,24.0,0.,24.0,0.,24.0
1979-07-16 18:05:19.950 ,1,1,0.,24.0,0.,24.0,0.,24.0,0.,24.0
1979-07-16 18:05:43.950 ,0,0,0.,24.0,0.,24.0,0.,24.0,0.,24.0
1979-07-16 18:06:07.950 ,0,0,0.,24.0,0.,24.0,0.,24.0,0.,24.0
1979-07-16 18:06:31.950 ,5,1,0.,24.0,0.,24.0,0.,24.0,0.,24.0
1979-07-16 18:06:55.950 ,0,0,0.,24.0,0.,24.0,0.,24.0,0.,24.0
1979-07-16 18:07:13.950 ,0,0,,0,,0,,0,,0
1979-07-16 18:07:19.950 ,4,1,0.,24.0,0.,24.0,0.,24.0,0.,24.0
1979-07-16 18:07:43.950 ,4,0,0.,24.0,0.,24.0,0.,24.0,0.,24.0
1979-07-16 18:08:07.950 ,3,1,0.,24.0,0.,24.0,0.,24.0,0.,24.0
1979-07-16 18:08:31.950 ,3,0,0.,24.0,0.,24.0,0.,24.0,0.,24.0
1979-07-16 18:08:55.950 ,2,1,0.,24.0,0.,24.0,0.,24.0,0.,24.0
1979-07-16 18:09:19.950 ,2,0,0.,24.0,0.,24.0,0.,24.0,0.,24.0
1979-07-16 18:09:43.950 ,1,1,0.,24.0,0.,24.0,0.,24.0,0.,24.0
1979-07-16 18:10:07.950 ,1,0,0.,24.0,0.,24.0,0.,24.0,0.,24.0
1979-07-16 18:10:31.950 ,0,1,0.,24.0,0.,24.0,0.,24.0,0.,24.0
1979-07-16 18:10:55.950 ,0,0,0.,24.0,0.,24.0,0.,24.0,0.,24.0
1979-07-16 18:11:19.950 ,0,1,0.,24.0,0.,24.0,0.,24.0,0.,24.0
1979-07-16 18:11:43.950 ,0,0,0.,24.0,0.,24.0,0.,24.0,0.,24.0
1979-07-16 18:12:07.950 ,1,1,0.,24.0,0.,24.0,0.,24.0,0.,24.0
1979-07-16 18:12:31.950 ,1,0,0.,24.0,0.,24.0,0.,24.0,0.,24.0
1979-07-16 18:12:55.950 ,2,1,0.,24.0,0.,24.0,0.,24.0,0.,24.0
1979-07-16 18:13:19.950 ,2,0,0.,24.0,0.,24.0,0.,24.0,0.,24.0
1979-07-16 18:13:43.950 ,3,1,0.,24.0,0.,24.0,0.,24.0,0.,24.0
1979-07-16 18:14:07.950 ,3,0,0.,24.0,0.,24.0,0.,24.0,0.,24.0
1979-07-16 18:14:31.950 ,4,1,0.,24.0,0.,24.0,0.,24.0,0.,24.0
1979-07-16 18:14:55.950 ,4,0,0.,24.0,0.,24.0,0.,24.0,0.,24.0
1979-07-16 18:15:19.950 ,5,1,0.,24.0,0.,24.0,0.,24.0,0.,24.0
1979-07-16 18:15:43.950 ,5,0,0.,24.0,0.,24.0,0.,24.0,0.,24.0
1979-07-16 18:16:07.950 ,6,1,0.,24.0,0.,24.0,0.,24.0,0.,24.0
1979-07-16 18:16:31.950 ,6,0,0.,24.0,0.,24.0,0.,24.0,0.,24.0
1979-07-16 18:16:55.950 ,7,1,0.,24.0,0.,24.0,0.,24.0,0.,24.0
1979-07-16 18:17:19.950 ,7,0,0.,24.0,0.,24.0,0.,24.0,0.,24.0
1979-07-16 18:17:43.950 ,7,1,0.,24.0,0.,24.0,0.,24.0,0.,24.0
1979-07-16 18:18:07.950 ,7,0,0.,24.0,0.,24.0,0.,24.0,0.,24.0
1979-07-16 18:18:31.950 ,6,1,0.,24.0,0.,24.0,0.,24.0,0.,24.0
1979-07-16 18:18:55.950 ,6,0,0.,24.0,0.,24.0,0.,24.0,0.,24.0
1979-07-16 18:19:19.950 ,5,1,0.,24.0,0.,24.0,0.,24.0,0.,24.0
1979-07-16 18:19:43.950 ,5,0,0.,24.0,0.,24.0,0.,24.0,0.,24.0
1979-07-16 18:20:07.950 ,4,1,0.,24.0,0.,24.0,0.,24.0,0.,24.0
1979-07-16 18:20:31.950 ,4,0,0.,24.0,0.,24.0,0.,24.0,0.,24.0
1979-07-16 18:20:55.950 ,3,1,0.,24.0,0.,24.0,0.,24.0,0.,24.0
1979-07-16 18:21:19.950 ,3,0,0.,24.0,0.,24.0,0.,24.0,0.,24.0
1979-07-16 18:21:43.950 ,2,1,0.,24.0,0.,24.0,0.,24.0,0.,24.0
1979-07-16 18:22:07.950 ,2,0,0.,24.0,0.,24.0,0.,24.0,0.,24.0
1979-07-16 18:22:31.950 ,1,1,0.,24.0,0.,24.0,0.,24.0,0.,24.0
1979-07-16 18:22:55.950 ,1,0,0.,24.0,0.,24.0,0.,24.0,0.,24.0
1979-07-16 18:23:19.950 ,0,1,0.,24.0,0.,24.0,0.,24.0,0.,24.0
1979-07-16 18:23:43.950 ,0,0,0.,24.0,0.,24.0,0.,24.0,0.,24.0
1979-07-16 18:24:07.950 ,0,1,0.,24.0,0.,24.0,0.,24.0,0.,24.0
1979-07-16 18:24:31.950 ,0,0,0.,24.0,0.,24.0,0.,24.0,0.,24.0
1979-07-16 18:24:55.950 ,1,1,0.,24.0,0.,24.0,0.,24.0,0.,24.0
1979-07-16 18:25:19.950 ,1,0,0.,24.0,0.,24.0,0.,24.0,0.,24.0
1979-07-16 18:25:43.950 ,2,1,0.,24.0,0.,24.0,0.,24.0,0.,24.0
1979-07-16 18:26:07.950 ,2,0,0.,24.0,0.,24.0,0.,24.0,0.,24.0
1979-07-16 18:26:31.950 ,3,1,0.,24.0,0.,24.0,0.,24.0,0.,24.0
1979-07-16 18:26:55.950 ,3,0,0.,24.0,0.,24.0,0.,24.0,0.,24.0
1979-07-16 18:27:19.950 ,4,1,0.,24.0,0.,24.0,0.,24.0,0.,24.0
1979-07-16 18:27:43.950 ,4,0,0.,24.0,0.,24.0,0.,24.0,0.,24.0
1979-07-16 18:28:07.950 ,5,1,0.,24.0,0.,24.0,0.,24.0,0.,24.0
1979-07-16 18:28:31.950 ,5,0,0.,24.0,0.,24.0,0.,24.0,0.,24.0
1979-07-16 18:28:55.950 ,6,1,0.,24.0,0.,24.0,0.,24.0,0.,24.0
1979-07-16 18:29:19.950 ,6,0,0.,24.0,0.,24.0,0.,24.0,0.,24.0
1979-07-16 18:29:43.950 ,7,1,0.,24.0,0.,24.0,0.,24.0,0.,24.0
1979-07-16 18:30:07.950 ,7,0,0.,24.0,0.,24.0,0.,24.0,0.,24.0
1979-07-16 18:30:31.950 ,7,1,0.,24.0,0.,24.0,0.,24.0,0.,24.0
1979-07-16 18:30:55.950 ,7,0,0.,24.0,0.,24.0,0.,24.0,0.,24.0
1979-07-16 18:32:07.950 ,0,0,0.,24.0,0.,24.0,0.,24.0,0.,24.0
1979-07-16 18:32:31.950 ,0,0,0.,24.0,0.,24.0,0.,24.0,0.,24.0
1979-07-16 18:32:55.950 ,4,1,0.,24.0,0.,24.0,0.,24.0,0.,24.0
1979-07-16 18:33:19.950 ,4,0,0.,24.0,0.,24.0,0.,24.0,0.,24.0
1979-07-16 18:33:43.950 ,3,1,0.,24.0,0.,24.0,0.,24.0,0.,24.0
1979-07-16 18:34:07.950 ,3,0,0.,24.0,0.,24.0,0.,24.0,0.,24.0
1979-07-16 18:34:31.950 ,2,1,0.,24.0,0.,24.0,0.,24.0,0.,24.0
1979-07-16 18:34:55.950 ,2,0,0.,24.0,0.,24.0,0.,24.0,0.,24.0
1979-07-16 18:35:19.950 ,1,1,0.,24.0,0.,24.0,0.,24.0,0.,24.0
1979-07-16 18:35:43.950 ,1,0,0.,24.0,0.,24.0,0.,24.0,0.,24.0
1979-07-16 18:36:07.950 ,0,1,0.,24.0,0.,24.0,0.,24.0,0.,24.0
1979-07-16 18:36:31.950 ,0,0,0.,24.0,0.,24.0,0.,24.0,0.,24.0
1979-07-16 18:36:55.950 ,0,1,0.,24.0,0.,24.0,0.,24.0,0.,24.0
1979-07-16 18:37:19.950 ,0,0,0.,24.0,0.,24.0,0.,24.0,0.,24.0
1979-07-16 18:37:43.950 ,1,1,0.,24.0,0.,24.0,0.,24.0,0.,24.0
1979-07-16 18:38:07.950 ,1,0,0.,24.0,0.,24.0,0.,24.0,0.,24.0
1979-07-16 18:38:31.950 ,2,1,0.,24.0,0.,24.0,0.,24.0,0.,24.0
1979-07-16 18:38:55.950 ,2,0,0.,24.0,0.,24.0,0.,24.0,0.,24.0
1979-07-16 18:39:19.950 ,3,1,0.,24.0,0.,24.0,0.,24.0,0.,24.0
1979-07-16 18:39:43.950 ,3,0,0.,24.0,0.,24.0,0.,24.0,0.,24.0
1979-07-16 18:40:07.950 ,4,1,0.,24.0,0.,24.0,0.,24.0,0.,24.0
1979-07-16 18:40:31.950 ,4,0,0.,24.0,0.,24.0,0.,24.0,0.,24.0
1979-07-16 18:40:55.950 ,5,1,0.,24.0,0.,24.0,0.,24.0,0.,24.0
1979-07-16 18:41:19.950 ,5,0,0.,24.0,0.,24.0,0.,24.0,0.,24.0
1979-07-16 18:41:43.950 ,6,1,0.,24.0,0.,24.0,0.,24.0,0.,24.0
1979-07-16 18:42:07.950 ,6,0,0.,24.0,0.,24.0,0.,24.0,0.,24.0
1979-07-16 18:42:31.950 ,7,0,0.,24.0,0.,24.0,0.,24.0,0.,24.0
1979-07-16 18:42:55.950 ,7,0,0.,24.0,0.,24.0,0.,24.0,0.,24.0
1979-07-16 18:43:19.950 ,5,1,0.,24.0,0.,24.0,0.,24.0,0.,24.0
1979-07-16 18:43:43.950 ,1,1,0.,24.0,0.,24.0,0.,24.0,0.,24.0
1979-07-16 18:44:07.950 ,2,1,0.,24.0,0.,24.0,0.,24.0,0.,24.0
1979-07-16 18:44:31.950 ,6,1,0.,24.0,0.,24.0,0.,24.0,0.,24.0
1979-07-16 18:44:55.950 ,5,1,0.,24.0,0.,24.0,0.,24.0,0.,24.0
1979-07-16 18:45:19.950 ,1,1,0.,24.0,0.,24.0,0.,24.0,0.,24.0
1979-07-16 18:45:43.950 ,2,1,0.,24.0,0.,24.0,0.,24.0,0.,24.0
1979-07-16 18:46:07.950 ,6,1,0.,24.0,0.,24.0,0.,24.0,0.,24.0
1979-07-16 18:46:31.950 ,5,1,0.,24.0,0.,24.0,0.,24.0,0.,24.0
1979-07-16 18:46:55.950 ,1,1,0.,24.0,0.,24.0,0.,24.0,0.,24.0
1979-07-16 18:47:19.950 ,2,1,0.,24.0,0.,24.0,0.,24.0,0.,24.0
1979-07-16 18:47:43.950 ,6,1,0.,24.0,0.,24.0,0.,24.0,0.,24.0
1979-07-16 18:48:07.950 ,5,1,0.,24.0,0.,24.0,0.,24.0,0.,24.0
1979-07-16 18:48:31.950 ,1,1,0.,24.0,0.,24.0,0.,24.0,0.,24.0
1979-07-16 18:48:55.950 ,2,1,0.,24.0,0.,24.0,0.,24.0,0.,24.0
1979-07-16 18:49:19.950 ,6,1,0.,24.0,0.,24.0,0.,24.0,0.,24.0
1979-07-16 18:49:43.950 ,5,1,0.,24.0,0.,24.0,0.,24.0,0.,24.0
1979-07-16 18:50:07.950 ,1,1,0.,24.0,0.,24.0,0.,24.0,0.,24.0
1979-07-16 18:50:31.950 ,2,1,0.,24.0,0.,24.0,0.,24.0,0.,24.0
1979-07-16 18:50:55.950 ,6,1,0.,24.0,0.,24.0,0.,24.0,0.,24.0
1979-07-16 18:51:19.950 ,5,1,0.,24.0,0.,24.0,0.,24.0,0.,24.0
1979-07-16 18:51:43.950 ,1,1,0.,24.0,0.,24.0,0.,24.0,0.,24.0
1979-07-16 18:52:07.950 ,2,1,0.,24.0,0.,24.0,0.,24.0,0.,24.0
1979-07-16 18:52:31.950 ,6,1,0.,24.0,0.,24.0,0.,24.0,0.,24.0
1979-07-16 18:52:55.950 ,5,1,0.,24.0,0.,24.0,0.,24.0,0.,24.0
1979-07-16 18:53:19.950 ,1,1,0.,24.0,0.,24.0,0.,24.0,0.,24.0
1979-07-16 18:53:43.950 ,0,0,0.,24.0,0.,24.0,0.,24.0,0.,24.0
1979-07-16 18:54:07.950 ,0,0,,0,,0,,0,,0
1979-07-16 18:55:09.150 ,0,0,,0,,0,,0,,0
1979-07-16 18:55:19.950 ,4,1,0.,24.0,0.,24.0,0.,24.0,0.,24.0
1979-07-16 18:55:43.950 ,4,0,0.,24.0,0.,24.0,0.,24.0,0.,24.0
1979-07-16 18:56:07.950 ,3,1,0.,24.0,0.,24.0,0.,24.0,0.,24.0
1979-07-16 18:56:31.950 ,3,0,0.,24.0,0.,24.0,0.,24.0,0.,24.0
1979-07-16 18:56:55.950 ,2,1,0.,24.0,0.,24.0,0.,24.0,0.,24.0
1979-07-16 18:57:19.950 ,2,0,0.,24.0,0.,24.0,0.,24.0,0.,24.0
1979-07-16 18:57:43.950 ,1,1,0.,24.0,0.,24.0,0.,24.0,0.,24.0
1979-07-16 18:58:07.950 ,1,0,0.,24.0,0.,24.0,0.,24.0,0.,24.0
1979-07-16 18:58:31.950 ,0,1,0.,24.0,0.,24.0,0.,24.0,0.,24.0
1979-07-16 18:58:55.950 ,0,0,0.,24.0,0.,24.0,0.,24.0,0.,24.0
1979-07-16 18:59:19.950 ,0,1,0.,24.0,0.,24.0,0.,24.0,0.,24.0
1979-07-16 18:59:43.950 ,0,0,0.,24.0,0.,24.0,0.,24.0,0.,24.0
1979-07-16 19:00:07.950 ,1,1,0.,24.0,0.,24.0,0.,24.0,0.,24.0
1979-07-16 19:00:31.950 ,1,0,0.,24.0,0.,24.0,0.,24.0,0.,24.0
1979-07-16 19:00:55.950 ,2,1,0.,24.0,0.,24.0,0.,24.0,0.,24.0
1979-07-16 19:01:19.950 ,2,0,0.,24.0,0.,24.0,0.,24.0,0.,24.0
1979-07-16 19:01:43.950 ,3,1,0.,24.0,0.,24.0,0.,24.0,0.,24.0
1979-07-16 19:02:07.950 ,3,0,0.,24.0,0.,24.0,0.,24.0,0.,24.0
1979-07-16 19:02:31.950 ,4,1,0.,24.0,0.,24.0,0.,24.0,0.,24.0
1979-07-16 19:02:55.950 ,4,0,0.,24.0,0.,24.0,0.,24.0,0.,24.0
1979-07-16 19:03:19.950 ,5,1,0.,24.0,0.,24.0,0.,24.0,0.,24.0
1979-07-16 19:03:43.950 ,5,0,0.,24.0,0.,24.0,0.,24.0,0.,24.0
1979-07-16 19:04:07.950 ,6,1,0.,24.0,0.,24.0,0.,24.0,0.,24.0
1979-07-16 19:04:31.950 ,6,0,0.,24.0,0.,24.0,0.,24.0,0.,24.0
1979-07-16 19:04:55.950 ,7,1,0.,24.0,0.,24.0,0.,24.0,0.,24.0
1979-07-16 19:05:19.950 ,7,0,0.,24.0,0.,24.0,0.,24.0,0.,24.0
1979-07-16 19:05:43.950 ,7,1,0.,24.0,0.,24.0,0.,24.0,0.,24.0
1979-07-16 19:06:07.950 ,7,0,0.,24.0,0.,24.0,0.,24.0,0.,24.0
1979-07-16 19:06:31.950 ,6,1,0.,24.0,0.,24.0,0.,24.0,0.,24.0
1979-07-16 19:06:55.950 ,6,0,0.,24.0,0.,24.0,0.,24.0,0.,24.0
1979-07-16 19:07:19.950 ,5,1,0.,24.0,0.,24.0,0.,24.0,0.,24.0
1979-07-16 19:07:43.950 ,5,0,0.,24.0,0.,24.0,0.,24.0,0.,24.0
1979-07-16 19:08:07.950 ,4,1,0.,24.0,0.,24.0,0.,24.0,0.,24.0
1979-07-16 19:08:31.950 ,4,0,0.,24.0,0.,24.0,0.,24.0,0.,24.0
1979-07-16 19:08:55.950 ,3,1,0.,24.0,0.,24.0,0.,24.0,0.,24.0
1979-07-16 19:09:19.950 ,3,0,0.,24.0,0.,24.0,0.,24.0,0.,24.0
1979-07-16 19:09:43.950 ,2,1,0.,24.0,0.,24.0,0.,24.0,0.,24.0
1979-07-16 19:10:07.950 ,2,0,0.,24.0,0.,24.0,0.,24.0,0.,24.0
1979-07-16 19:10:31.950 ,1,1,0.,24.0,0.,24.0,0.,24.0,0.,24.0
1979-07-16 19:10:55.950 ,1,0,0.,24.0,0.,24.0,0.,24.0,0.,24.0
1979-07-16 19:11:19.950 ,0,1,0.,24.0,0.,24.0,0.,24.0,0.,24.0
1979-07-16 19:11:43.950 ,0,0,0.,24.0,0.,24.0,0.,24.0,0.,24.0
1979-07-16 19:12:07.950 ,0,1,0.,24.0,0.,24.0,0.,24.0,0.,24.0
1979-07-16 19:12:31.950 ,0,0,0.,24.0,0.,24.0,0.,24.0,0.,24.0
1979-07-16 19:12:55.950 ,1,1,0.,24.0,0.,24.0,0.,24.0,0.,24.0
1979-07-16 19:13:19.950 ,1,0,0.,24.0,0.,24.0,0.,24.0,0.,24.0
1979-07-16 19:13:43.950 ,2,1,0.,24.0,0.,24.0,0.,24.0,0.,24.0
1979-07-16 19:14:07.950 ,2,0,0.,24.0,0.,24.0,0.,24.0,0.,24.0
1979-07-16 19:14:31.950 ,3,1,0.,24.0,0.,24.0,0.,24.0,0.,24.0
1979-07-16 19:14:55.950 ,3,0,0.,24.0,0.,24.0,0.,24.0,0.,24.0
1979-07-16 19:15:19.950 ,4,1,0.,24.0,0.,24.0,0.,24.0,0.,24.0
1979-07-16 19:15:43.950 ,4,0,0.,24.0,0.,24.0,0.,24.0,0.,24.0
1979-07-16 19:16:07.950 ,5,1,0.,24.0,0.,24.0,0.,24.0,0.,24.0
1979-07-16 19:16:31.950 ,5,0,0.,24.0,0.,24.0,0.,24.0,0.,24.0
1979-07-16 19:16:55.950 ,6,1,0.,24.0,0.,24.0,0.,24.0,0.,24.0
1979-07-16 19:17:19.950 ,6,0,0.,24.0,0.,24.0,0.,24.0,0.,24.0
1979-07-16 19:17:43.950 ,7,1,0.,24.0,0.,24.0,0.,24.0,0.,24.0
1979-07-16 19:18:07.950 ,7,0,0.,24.0,0.,24.0,0.,24.0,0.,24.0
1979-07-16 19:18:31.950 ,7,1,0.,24.0,0.,24.0,0.,24.0,0.,24.0
1979-07-16 19:18:55.950 ,7,0,0.,24.0,0.,24.0,0.,24.0,0.,24.0
1979-07-16 19:19:19.950 ,6,1,0.,24.0,0.,24.0,0.,24.0,0.,24.0
1979-07-16 19:19:43.950 ,6,0,0.,24.0,0.,24.0,0.,24.0,0.,24.0
1979-07-16 19:20:07.950 ,5,1,0.,24.0,0.,24.0,0.,24.0,0.,24.0
1979-07-16 19:20:31.950 ,5,0,0.,24.0,0.,24.0,0.,24.0,0.,24.0
1979-07-16 19:20:55.950 ,4,1,0.,24.0,0.,24.0,0.,24.0,0.,24.0
1979-07-16 19:21:19.950 ,4,0,0.,24.0,0.,24.0,0.,24.0,0.,24.0
1979-07-16 19:21:43.950 ,3,1,0.,24.0,0.,24.0,0.,24.0,0.,24.0
1979-07-16 19:22:07.950 ,3,0,0.,24.0,0.,24.0,0.,24.0,0.,24.0
1979-07-16 19:22:31.950 ,2,1,0.,24.0,0.,24.0,0.,24.0,0.,24.0
1979-07-16 19:22:55.950 ,2,0,0.,24.0,0.,24.0,0.,24.0,0.,24.0
1979-07-16 19:23:19.950 ,1,1,0.,24.0,0.,24.0,0.,24.0,0.,24.0
1979-07-16 19:23:43.950 ,1,0,0.,24.0,0.,24.0,0.,24.0,0.,24.0
1979-07-16 19:24:07.950 ,0,1,0.,24.0,0.,24.0,0.,24.0,0.,24.0
1979-07-16 19:24:31.950 ,0,0,0.,24.0,0.,24.0,0.,24.0,0.,24.0
1979-07-16 19:24:55.950 ,0,1,0.,24.0,0.,24.0,0.,24.0,0.,24.0
1979-07-16 19:25:19.950 ,0,0,0.,24.0,0.,24.0,0.,24.0,0.,24.0
1979-07-16 19:25:43.950 ,1,1,0.,24.0,0.,24.0,0.,24.0,0.,24.0
1979-07-16 19:26:07.950 ,1,0,0.,24.0,0.,24.0,0.,24.0,0.,24.0
1979-07-16 19:26:31.950 ,2,1,0.,24.0,0.,24.0,0.,24.0,0.,24.0
1979-07-16 19:26:55.950 ,2,0,0.,24.0,0.,24.0,0.,24.0,0.,24.0
1979-07-16 19:27:19.950 ,3,1,0.,24.0,0.,24.0,0.,24.0,0.,24.0
1979-07-16 19:27:43.950 ,3,0,0.,24.0,0.,24.0,0.,24.0,0.,24.0
1979-07-16 19:28:07.950 ,4,1,0.,24.0,0.,24.0,0.,24.0,0.,24.0
1979-07-16 19:28:31.950 ,4,0,0.,24.0,0.,24.0,0.,24.0,0.,24.0
1979-07-16 19:28:55.950 ,5,1,0.,24.0,0.,24.0,0.,24.0,0.,24.0
1979-07-16 19:29:19.950 ,5,0,0.,24.0,0.,24.0,0.,24.0,0.,24.0
1979-07-16 19:29:43.950 ,6,1,0.,24.0,0.,24.0,0.,24.0,0.,24.0
1979-07-16 19:30:07.950 ,6,0,0.,24.0,0.,24.0,0.,24.0,0.,24.0
1979-07-16 19:30:31.950 ,7,0,0.,24.0,0.,24.0,0.,24.0,0.,24.0
1979-07-16 19:30:55.950 ,7,0,0.,24.0,0.,24.0,0.,24.0,0.,24.0
1979-07-16 19:31:19.950 ,5,1,0.,24.0,0.,24.0,0.,24.0,0.,24.0
1979-07-16 19:31:43.950 ,1,1,0.,24.0,0.,24.0,0.,24.0,0.,24.0
1979-07-16 19:32:07.950 ,2,1,0.,24.0,0.,24.0,0.,24.0,0.,24.0
1979-07-16 19:32:31.950 ,6,1,0.,24.0,0.,24.0,0.,24.0,0.,24.0
1979-07-16 19:32:55.950 ,5,1,0.,24.0,0.,24.0,0.,24.0,0.,24.0
1979-07-16 19:33:19.950 ,1,1,0.,24.0,0.,24.0,0.,24.0,0.,24.0
1979-07-16 19:33:43.950 ,2,1,0.,24.0,0.,24.0,0.,24.0,0.,24.0
1979-07-16 19:34:07.950 ,6,1,0.,24.0,0.,24.0,0.,24.0,0.,24.0
1979-07-16 19:34:31.950 ,5,1,0.,24.0,0.,24.0,0.,24.0,0.,24.0
1979-07-16 19:34:55.950 ,1,1,0.,24.0,0.,24.0,0.,24.0,0.,24.0
1979-07-16 19:35:19.950 ,2,1,0.,24.0,0.,24.0,0.,24.0,0.,24.0
1979-07-16 19:35:43.950 ,6,1,0.,24.0,0.,24.0,0.,24.0,0.,24.0
1979-07-16 19:36:07.950 ,5,1,0.,24.0,0.,24.0,0.,24.0,0.,24.0
1979-07-16 19:36:31.950 ,1,1,0.,24.0,0.,24.0,0.,24.0,0.,24.0
1979-07-16 19:36:55.950 ,2,1,0.,24.0,0.,24.0,0.,24.0,0.,24.0
1979-07-16 19:37:19.950 ,6,1,0.,24.0,0.,24.0,0.,24.0,0.,24.0
1979-07-16 19:37:43.950 ,5,1,0.,24.0,0.,24.0,0.,24.0,0.,24.0
1979-07-16 19:38:07.950 ,1,1,0.,24.0,0.,24.0,0.,24.0,0.,24.0
1979-07-16 19:38:31.950 ,2,1,0.,24.0,0.,24.0,0.,24.0,0.,24.0
1979-07-16 19:38:55.950 ,6,1,0.,24.0,0.,24.0,0.,24.0,0.,24.0
1979-07-16 19:39:19.950 ,5,1,0.,24.0,0.,24.0,0.,24.0,0.,24.0
1979-07-16 19:39:43.950 ,1,1,0.,24.0,0.,24.0,0.,24.0,0.,24.0
1979-07-16 19:40:07.950 ,2,1,0.,24.0,0.,24.0,0.,24.0,0.,24.0
1979-07-16 19:40:31.950 ,6,1,0.,24.0,0.,24.0,0.,24.0,0.,24.0
1979-07-16 19:40:55.950 ,5,1,0.,24.0,0.,24.0,0.,24.0,0.,24.0
1979-07-16 19:41:19.950 ,1,1,0.,24.0,0.,24.0,0.,24.0,0.,24.0
1979-07-16 19:41:43.950 ,0,0,0.,24.0,0.,24.0,0.,24.0,0.,24.0
1979-07-16 19:42:07.950 ,0,0,0.,24.0,0.,24.0,0.,24.0,0.,24.0
1979-07-16 19:42:31.950 ,5,0,,0,,0,,0,,0
1979-07-16 19:42:55.950 ,5,0,0.,24.0,0.,24.0,0.,24.0,0.,24.0
1979-07-16 19:43:19.950 ,4,1,0.,24.0,0.,24.0,0.,24.0,0.,24.0
1979-07-16 19:43:43.950 ,4,0,0.,24.0,0.,24.0,0.,24.0,0.,24.0
1979-07-16 19:44:07.950 ,3,1,0.,24.0,0.,24.0,0.,24.0,0.,24.0
1979-07-16 19:44:31.950 ,3,0,0.,24.0,0.,24.0,0.,24.0,0.,24.0
1979-07-16 19:44:55.950 ,2,1,0.,24.0,0.,24.0,0.,24.0,0.,24.0
1979-07-16 19:45:19.950 ,2,0,0.,24.0,0.,24.0,0.,24.0,0.,24.0
1979-07-16 19:45:43.950 ,1,1,0.,24.0,0.,24.0,0.,24.0,0.,24.0
1979-07-16 19:46:07.950 ,1,0,0.,24.0,0.,24.0,0.,24.0,0.,24.0
1979-07-16 19:46:31.950 ,0,1,0.,24.0,0.,24.0,0.,24.0,0.,24.0
1979-07-16 19:46:55.950 ,0,0,0.,24.0,0.,24.0,0.,24.0,0.,24.0
1979-07-16 19:47:19.950 ,0,0,0.,24.0,0.,24.0,0.,24.0,0.,24.0
1979-07-16 19:47:43.950 ,0,0,,0,,0,,0,,0
1979-07-16 19:48:54.750 ,0,0,,0,,0,,0,,0
1979-07-16 19:48:55.950 ,0,0,0.,24.0,0.,24.0,0.,24.0,0.,24.0
1979-07-16 19:49:19.950 ,0,0,0.,24.0,0.,24.0,0.,24.0,0.,24.0
1979-07-16 19:49:43.950 ,3,1,0.,24.0,0.,24.0,0.,24.0,0.,24.0
1979-07-16 19:50:07.950 ,3,0,0.,24.0,0.,24.0,0.,24.0,0.,24.0
1979-07-16 19:50:31.950 ,4,1,0.,24.0,0.,24.0,0.,24.0,0.,24.0
1979-07-16 19:50:55.950 ,4,0,0.,24.0,0.,24.0,0.,24.0,0.,24.0
1979-07-16 19:51:19.950 ,5,1,0.,24.0,0.,24.0,0.,24.0,0.,24.0
1979-07-16 19:51:43.950 ,5,0,0.,24.0,0.,24.0,0.,24.0,0.,24.0
1979-07-16 19:52:07.950 ,6,1,0.,24.0,0.,24.0,0.,24.0,0.,24.0
1979-07-16 19:52:31.950 ,6,0,0.,24.0,0.,24.0,0.,24.0,0.,24.0
1979-07-16 19:52:55.950 ,7,1,0.,24.0,0.,24.0,0.,24.0,0.,24.0
1979-07-16 19:53:19.950 ,7,0,0.,24.0,0.,24.0,0.,24.0,0.,24.0
1979-07-16 19:53:43.950 ,7,1,0.,24.0,0.,24.0,0.,24.0,0.,24.0
1979-07-16 19:54:07.950 ,7,0,0.,24.0,0.,24.0,0.,24.0,0.,24.0
1979-07-16 19:54:31.950 ,6,1,0.,24.0,0.,24.0,0.,24.0,0.,24.0
1979-07-16 19:54:55.950 ,6,0,0.,24.0,0.,24.0,0.,24.0,0.,24.0
1979-07-16 19:55:19.950 ,5,1,0.,24.0,0.,24.0,0.,24.0,0.,24.0
1979-07-16 19:55:43.950 ,5,0,0.,24.0,0.,24.0,0.,24.0,0.,24.0
1979-07-16 19:56:07.950 ,4,1,0.,24.0,0.,24.0,0.,24.0,0.,24.0
1979-07-16 19:56:31.950 ,4,0,0.,24.0,0.,24.0,0.,24.0,0.,24.0
1979-07-16 19:56:55.950 ,3,1,0.,24.0,0.,24.0,0.,24.0,0.,24.0
1979-07-16 19:57:19.950 ,3,0,0.,24.0,0.,24.0,0.,24.0,0.,24.0
1979-07-16 19:57:43.950 ,2,1,0.,24.0,0.,24.0,0.,24.0,0.,24.0
1979-07-16 19:58:07.950 ,2,0,0.,24.0,0.,24.0,0.,24.0,0.,24.0
1979-07-16 19:58:31.950 ,1,1,0.,24.0,0.,24.0,0.,24.0,0.,24.0
1979-07-16 19:58:55.950 ,1,0,0.,24.0,0.,24.0,0.,24.0,0.,24.0
1979-07-16 19:59:19.950 ,0,1,0.,24.0,0.,24.0,0.,24.0,0.,24.0
1979-07-16 19:59:43.950 ,0,0,0.,24.0,0.,24.0,0.,24.0,0.,24.0
1979-07-16 20:00:07.950 ,0,1,0.,24.0,0.,24.0,0.,24.0,0.,24.0
1979-07-16 20:00:31.950 ,0,0,0.,24.0,0.,24.0,0.,24.0,0.,24.0
1979-07-16 20:00:55.950 ,1,1,0.,24.0,0.,24.0,0.,24.0,0.,24.0
1979-07-16 20:01:19.950 ,1,0,0.,24.0,0.,24.0,0.,24.0,0.,24.0
1979-07-16 20:01:43.950 ,2,1,0.,24.0,0.,24.0,0.,24.0,0.,24.0
1979-07-16 20:02:07.950 ,2,0,0.,24.0,0.,24.0,0.,24.0,0.,24.0
1979-07-16 20:02:31.950 ,3,1,0.,24.0,0.,24.0,0.,24.0,0.,24.0
1979-07-16 20:02:55.950 ,3,0,0.,24.0,0.,24.0,0.,24.0,0.,24.0
1979-07-16 20:03:19.950 ,4,1,0.,24.0,0.,24.0,0.,24.0,0.,24.0
1979-07-16 20:03:43.950 ,4,0,0.,24.0,0.,24.0,0.,24.0,0.,24.0
1979-07-16 20:04:07.950 ,5,1,0.,24.0,0.,24.0,0.,24.0,0.,24.0
1979-07-16 20:04:31.950 ,5,0,0.,24.0,0.,24.0,0.,24.0,0.,24.0
1979-07-16 20:04:55.950 ,6,1,0.,24.0,0.,24.0,0.,24.0,0.,24.0
1979-07-16 20:05:19.950 ,6,0,0.,24.0,0.,24.0,0.,24.0,0.,24.0
1979-07-16 20:05:43.950 ,7,1,0.,24.0,0.,24.0,0.,24.0,0.,24.0
1979-07-16 20:06:07.950 ,7,0,0.,24.0,0.,24.0,0.,24.0,0.,24.0
1979-07-16 20:06:31.950 ,7,1,0.,24.0,0.,24.0,0.,24.0,0.,24.0
1979-07-16 20:06:55.950 ,7,0,0.,24.0,0.,24.0,0.,24.0,0.,24.0
1979-07-16 20:07:19.950 ,6,1,0.,24.0,0.,24.0,0.,24.0,0.,24.0
1979-07-16 20:07:43.950 ,6,0,0.,24.0,0.,24.0,0.,24.0,0.,24.0
1979-07-16 20:08:07.950 ,5,1,0.,24.0,0.,24.0,0.,24.0,0.,24.0
1979-07-16 20:08:31.950 ,5,0,0.,24.0,0.,24.0,0.,24.0,0.,24.0
1979-07-16 20:08:55.950 ,4,1,0.,24.0,0.,24.0,0.,24.0,0.,24.0
1979-07-16 20:09:19.950 ,4,0,0.,24.0,0.,24.0,0.,24.0,0.,24.0
1979-07-16 20:09:43.950 ,3,1,0.,24.0,0.,24.0,0.,24.0,0.,24.0
1979-07-16 20:10:07.950 ,3,0,0.,24.0,0.,24.0,0.,24.0,0.,24.0
1979-07-16 20:10:31.950 ,2,1,0.,24.0,0.,24.0,0.,24.0,0.,24.0
1979-07-16 20:10:55.950 ,2,0,0.,24.0,0.,24.0,0.,24.0,0.,24.0
1979-07-16 20:11:19.950 ,1,1,0.,24.0,0.,24.0,0.,24.0,0.,24.0
1979-07-16 20:11:43.950 ,1,0,0.,24.0,0.,24.0,0.,24.0,0.,24.0
1979-07-16 20:12:07.950 ,0,1,0.,24.0,0.,24.0,0.,24.0,0.,24.0
1979-07-16 20:12:31.950 ,0,0,0.,24.0,0.,24.0,0.,24.0,0.,24.0
1979-07-16 20:12:55.950 ,0,1,0.,24.0,0.,24.0,0.,24.0,0.,24.0
1979-07-16 20:13:19.950 ,0,0,0.,24.0,0.,24.0,0.,24.0,0.,24.0
1979-07-16 20:13:43.950 ,1,1,0.,24.0,0.,24.0,0.,24.0,0.,24.0
1979-07-16 20:14:07.950 ,1,0,0.,24.0,0.,24.0,0.,24.0,0.,24.0
1979-07-16 20:14:31.950 ,2,1,0.,24.0,0.,24.0,0.,24.0,0.,24.0
1979-07-16 20:14:55.950 ,2,0,0.,24.0,0.,24.0,0.,24.0,0.,24.0
1979-07-16 20:15:19.950 ,3,1,0.,24.0,0.,24.0,0.,24.0,0.,24.0
1979-07-16 20:15:43.950 ,3,0,0.,24.0,0.,24.0,0.,24.0,0.,24.0
1979-07-16 20:16:07.950 ,4,1,0.,24.0,0.,24.0,0.,24.0,0.,24.0
1979-07-16 20:16:31.950 ,4,0,0.,24.0,0.,24.0,0.,24.0,0.,24.0
1979-07-16 20:16:55.950 ,5,1,0.,24.0,0.,24.0,0.,24.0,0.,24.0
1979-07-16 20:17:19.950 ,5,0,0.,24.0,0.,24.0,0.,24.0,0.,24.0
1979-07-16 20:17:43.950 ,6,1,0.,24.0,0.,24.0,0.,24.0,0.,24.0
1979-07-16 20:18:07.950 ,6,0,0.,24.0,0.,24.0,0.,24.0,0.,24.0
1979-07-16 20:18:31.950 ,7,0,0.,24.0,0.,24.0,0.,24.0,0.,24.0
1979-07-16 20:18:55.950 ,7,0,0.,24.0,0.,24.0,0.,24.0,0.,24.0
1979-07-16 20:19:19.950 ,5,1,0.,24.0,0.,24.0,0.,24.0,0.,24.0
1979-07-16 20:19:43.950 ,1,1,0.,24.0,0.,24.0,0.,24.0,0.,24.0
1979-07-16 20:20:07.950 ,2,1,0.,24.0,0.,24.0,0.,24.0,0.,24.0
1979-07-16 20:20:31.950 ,6,1,0.,24.0,0.,24.0,0.,24.0,0.,24.0
1979-07-16 20:20:55.950 ,5,1,0.,24.0,0.,24.0,0.,24.0,0.,24.0
1979-07-16 20:21:19.950 ,1,1,0.,24.0,0.,24.0,0.,24.0,0.,24.0
1979-07-16 20:21:43.950 ,2,1,0.,24.0,0.,24.0,0.,24.0,0.,24.0
1979-07-16 20:22:07.950 ,6,1,0.,24.0,0.,24.0,0.,24.0,0.,24.0
1979-07-16 20:22:31.950 ,3,1,,0,,0,,0,,0
1979-07-16 20:22:55.950 ,1,1,0.,24.0,0.,24.0,0.,24.0,0.,24.0
1979-07-16 20:23:19.950 ,2,1,0.,24.0,0.,24.0,0.,24.0,0.,24.0
1979-07-16 20:23:43.950 ,6,1,0.,24.0,0.,24.0,0.,24.0,0.,24.0
1979-07-16 20:24:07.950 ,5,1,0.,24.0,0.,24.0,0.,24.0,0.,24.0
1979-07-16 20:24:31.950 ,1,1,0.,24.0,0.,24.0,0.,24.0,0.,24.0
1979-07-16 20:24:55.950 ,2,1,0.,24.0,0.,24.0,0.,24.0,0.,24.0
1979-07-16 20:25:19.950 ,6,1,0.,24.0,0.,24.0,0.,24.0,0.,24.0
1979-07-16 20:25:43.950 ,5,1,0.,24.0,0.,24.0,0.,24.0,0.,24.0
1979-07-16 20:26:07.950 ,1,1,0.,24.0,0.,24.0,0.,24.0,0.,24.0
1979-07-16 20:26:31.950 ,2,1,0.,24.0,0.,24.0,0.,24.0,0.,24.0
1979-07-16 20:26:55.950 ,6,1,0.,24.0,0.,24.0,0.,24.0,0.,24.0
1979-07-16 20:27:19.950 ,5,1,0.,24.0,0.,24.0,0.,24.0,0.,24.0
1979-07-16 20:27:43.950 ,1,1,0.,24.0,0.,24.0,0.,24.0,0.,24.0
1979-07-16 20:28:07.950 ,2,1,0.,24.0,0.,24.0,0.,24.0,0.,24.0
1979-07-16 20:28:31.950 ,6,1,0.,24.0,0.,24.0,0.,24.0,0.,24.0
1979-07-16 20:28:55.950 ,5,1,0.,24.0,0.,24.0,0.,24.0,0.,24.0
1979-07-16 20:29:19.950 ,1,1,0.,24.0,0.,24.0,0.,24.0,0.,24.0
1979-07-16 20:29:43.950 ,0,0,0.,24.0,0.,24.0,0.,24.0,0.,24.0
1979-07-16 20:30:07.950 ,0,0,0.,24.0,0.,24.0,0.,24.0,0.,24.0
1979-07-16 20:30:31.950 ,5,1,0.,24.0,0.,24.0,0.,24.0,0.,24.0
1979-07-16 20:30:55.950 ,5,0,0.,24.0,0.,24.0,0.,24.0,0.,24.0
1979-07-16 20:31:19.950 ,4,1,0.,24.0,0.,24.0,0.,24.0,0.,24.0
1979-07-16 20:31:43.950 ,4,0,0.,24.0,0.,24.0,0.,24.0,0.,24.0
1979-07-16 20:32:07.950 ,3,1,0.,24.0,0.,24.0,0.,24.0,0.,24.0
1979-07-16 20:32:31.950 ,3,0,0.,24.0,0.,24.0,0.,24.0,0.,24.0
1979-07-16 20:32:55.940 ,2,1,0.,24.0,0.,24.0,0.,24.0,0.,24.0
1979-07-16 20:33:19.940 ,2,0,0.,24.0,0.,24.0,0.,24.0,0.,24.0
1979-07-16 20:33:43.940 ,1,1,0.,24.0,0.,24.0,0.,24.0,0.,24.0
1979-07-16 20:34:07.940 ,1,0,0.,24.0,0.,24.0,0.,24.0,0.,24.0
1979-07-16 20:34:31.940 ,0,1,0.,24.0,0.,24.0,0.,24.0,0.,24.0
1979-07-16 20:34:55.940 ,0,0,0.,24.0,0.,24.0,0.,24.0,0.,24.0
1979-07-16 20:35:19.940 ,0,1,0.,24.0,0.,24.0,0.,24.0,0.,24.0
1979-07-16 20:35:43.940 ,0,0,0.,24.0,0.,24.0,0.,24.0,0.,24.0
1979-07-16 20:36:07.940 ,1,1,0.,24.0,0.,24.0,0.,24.0,0.,24.0
1979-07-16 20:36:31.940 ,1,0,0.,24.0,0.,24.0,0.,24.0,0.,24.0
1979-07-16 20:36:55.940 ,2,1,0.,24.0,0.,24.0,0.,24.0,0.,24.0
1979-07-16 20:37:19.940 ,2,0,0.,24.0,0.,24.0,0.,24.0,0.,24.0
1979-07-16 20:37:43.940 ,3,1,0.,24.0,0.,24.0,0.,24.0,0.,24.0
1979-07-16 20:38:07.940 ,3,0,0.,24.0,0.,24.0,0.,24.0,0.,24.0